Weather History for Anderson, SC

Change the Weather History Date:

Saturday, December 29, 2012

  Actual Average Record
Temperature  
Mean Temperature 44 °F -  
Max Temperature 51 °F 53 °F 75 °F (1984)
Min Temperature 35 °F 34 °F 18 °F (1977)
Degree Days  
Heating Degree Days 21    
Moisture  
Dew Point 35 °F    
Average Humidity 82    
Maximum Humidity 100    
Minimum Humidity 52    
Precipitation  
Precipitation 0.43 in - - ()
Sea Level Pressure  
Sea Level Pressure 29.87 in    
Wind  
Wind Speed 8 mph (WNW)    
Max Wind Speed 24 mph    
Max Gust Speed 31 mph    
Visibility 8 miles    
Events Rain , Snow    
Averages and records for this station are not official NWS values.
T = Trace of Precipitation, MM = Missing Value Source: NWS Daily Summary

Daily Weather History Graph

Daily Weather History Graph

Search for Another Location

Airport:

Trip Planner

Search our weather history database for the weather conditions in past years. The results will help you decide how hot, cold, wet, or windy it might be!

Date:

Astronomy

Dec. 29, 2012 Rise Set
Actual Time 7:36 AM EST 5:29 PM EST
Civil Twilight 7:09 AM EST 5:57 PM EST
Nautical Twilight 6:37 AM EST 6:28 PM EST
Astronomical Twilight 6:06 AM EST 6:59 PM EST
Moon 6:57 PM EST (12/29) 8:13 AM EST (12/29)
Length of Visible Light 10h 48m
Length of Day
9h 52m
Full, 98% of the Moon is Illuminated
Dec 29
Full
Jan 4
Last Quarter
Jan 11
New
Jan 18
First Quarter
Jan 26
Full

Hourly Weather History & Observations

Time (EST) Temp. Windchill Dew Point Humidity Pressure Visibility Wind Dir Wind Speed Gust Speed Precip Events Conditions
12:56 AM 39.0 °F 34.8 °F 36.0 °F 89% 29.94 in 7.0 mi NE 5.8 mph - 0.08 in Rain Rain
1:56 AM 37.9 °F 32.1 °F 37.0 °F 97% 29.91 in 5.0 mi East 8.1 mph - 0.15 in Rain Heavy Rain
2:56 AM 37.9 °F 30.5 °F 37.0 °F 97% 29.83 in 5.0 mi East 11.5 mph - 0.13 in Rain Rain
3:39 AM 37.4 °F 33.8 °F 37.4 °F 100% 29.83 in 7.0 mi NNE 4.6 mph - 0.06 in Rain Light Rain
3:47 AM 37.4 °F 32.8 °F 37.4 °F 100% 29.82 in 8.0 mi NE 5.8 mph - 0.06 in Rain Light Rain
3:56 AM 37.9 °F 32.1 °F 37.0 °F 97% 29.81 in 9.0 mi NE 8.1 mph - 0.06 in   Overcast
4:56 AM 37.9 °F 35.5 °F 37.0 °F 97% 29.79 in 8.0 mi NNE 3.5 mph - N/A   Overcast
5:56 AM 37.9 °F 33.5 °F 37.9 °F 100% 29.80 in 4.0 mi NNW 5.8 mph - 0.01 in Snow Light Snow
6:40 AM 37.4 °F 33.8 °F 37.4 °F 100% 29.81 in 3.0 mi NNW 4.6 mph - 0.00 in   Overcast
6:56 AM 37.9 °F - 37.9 °F 100% 29.82 in 4.0 mi Calm Calm - 0.00 in   Overcast
7:24 AM 37.4 °F 34.9 °F 37.4 °F 100% 29.82 in 7.0 mi West 3.5 mph - N/A   Overcast
7:33 AM 37.4 °F - 37.4 °F 100% 29.82 in 7.0 mi Calm Calm - N/A   Overcast
7:42 AM 39.2 °F - 37.4 °F 93% 29.82 in 7.0 mi Calm Calm - N/A   Overcast
7:52 AM 39.2 °F 37.0 °F 37.4 °F 93% 29.82 in 5.0 mi West 3.5 mph - N/A   Overcast
8:12 AM 39.2 °F - 39.2 °F 100% 29.83 in 5.0 mi Calm Calm - N/A   Overcast
8:56 AM 39.9 °F 36.7 °F 39.0 °F 97% 29.84 in 7.0 mi SW 4.6 mph - N/A   Overcast
9:15 AM 39.2 °F 35.0 °F 39.2 °F 100% 29.83 in 5.0 mi SW 5.8 mph - N/A   Overcast
9:49 AM 42.8 °F 36.2 °F 41.0 °F 93% 29.83 in 9.0 mi WSW 12.7 mph - N/A   Overcast
9:56 AM 43.0 °F 37.2 °F 41.0 °F 93% 29.84 in 10.0 mi WSW 10.4 mph - N/A   Overcast
10:08 AM 42.8 °F 36.2 °F 39.2 °F 87% 29.84 in 10.0 mi WSW 12.7 mph - N/A   Mostly Cloudy
10:32 AM 44.6 °F 37.4 °F 41.0 °F 87% 29.84 in 10.0 mi WSW 16.1 mph - N/A   Partly Cloudy
10:56 AM 46.0 °F 39.6 °F 41.0 °F 83% 29.84 in 10.0 mi WSW 15.0 mph 24.2 mph N/A   Clear
11:56 AM 48.9 °F - 39.9 °F 71% 29.83 in 10.0 mi WSW 17.3 mph 23.0 mph N/A   Partly Cloudy
12:56 PM 51.1 °F - 39.0 °F 63% 29.80 in 10.0 mi West 20.7 mph 29.9 mph N/A   Partly Cloudy
1:56 PM 51.1 °F - 36.0 °F 56% 29.80 in 10.0 mi West 18.4 mph 27.6 mph N/A   Scattered Clouds
2:56 PM 50.0 °F - 33.1 °F 52% 29.83 in 10.0 mi WSW 24.2 mph 31.1 mph N/A   Partly Cloudy
3:56 PM 48.0 °F - 32.0 °F 54% 29.86 in 10.0 mi West 19.6 mph 29.9 mph N/A   Overcast
4:56 PM 44.1 °F 37.4 °F 30.9 °F 60% 29.90 in 10.0 mi West 13.8 mph 27.6 mph N/A   Scattered Clouds
5:56 PM 41.0 °F 31.9 °F 28.9 °F 62% 29.94 in 10.0 mi West 19.6 mph 26.5 mph N/A   Clear
6:56 PM 41.0 °F 33.1 °F 28.9 °F 62% 29.97 in 10.0 mi West 15.0 mph 29.9 mph N/A   Overcast
7:56 PM 39.9 °F 32.1 °F 27.0 °F 60% 30.01 in 10.0 mi West 13.8 mph - N/A   Scattered Clouds
8:56 PM 37.9 °F 30.5 °F 26.1 °F 62% 30.03 in 10.0 mi WNW 11.5 mph - N/A   Clear
9:56 PM 37.9 °F 29.2 °F 25.0 °F 60% 30.06 in 9.0 mi WNW 15.0 mph - 0.00 in Snow Light Snow
10:56 PM 37.0 °F 30.4 °F 21.9 °F 54% 30.09 in 10.0 mi WNW 9.2 mph - 0.00 in   Clear
11:56 PM 35.1 °F 27.9 °F 24.1 °F 64% 30.11 in 10.0 mi West 9.2 mph - 0.00 in   Clear